Regional Weather Roundup
Issued by NWS

Home | Current Version | Previous Version | Text Only | Print | Product List | Glossary On
Versions: 1 2 3 4 5 6 7 8 9 10 11 12 13 14 15 16 17 18 19 20 21 22 23 24 25 26 27 28 29 30 31 32 33 34 35 36 37 38 39 40 41 42 43 44 45 46 47 48 49 50
000
ASUS46 KLOX 202012
RWRCA

SOUTHERN CALIFORNIA WEATHER ROUNDUP
NATIONAL WEATHER SERVICE OXNARD CALIFORNIA
100 PM PDT WED AUG 20 2014

NOTE: "FAIR" INDICATES FEW OR NO CLOUDS BELOW 12,000 FEET WITH NO
SIGNIFICANT WEATHER AND/OR OBSTRUCTIONS TO VISIBILITY.

  -  STATIONS PRECEEDED BY AN ASTERISK (*) ARE NOT NWS OR FAA
     STATIONS AND ARE NOT SUBJECT TO NWS AND FAA QUALITY CONTROL.

CAZ041-042-087-202100-
LA AND ORANGE COUNTY COASTAL AREAS


CITY           SKY/WX    TMP DP  RH WIND       PRES   REMARKS
L.A. DOWNTOWN  SUNNY     84  58  40 VRB3      29.90F
L.A. AIRPORT   MOSUNNY   77  58  51 W17       29.93F
LONG BEACH     SUNNY     77  60  55 S10       29.93S

CITY           SKY/WX    TMP DP  RH WIND       PRES   REMARKS
AVALON           N/A     75 N/A N/A E3          N/A
FULLERTON      MOSUNNY   83  59  44 S8        29.90F
*GETTY CENTER    N/A     77  59  53 S9G15       N/A
HAWTHORNE      SUNNY     78  59  51 W14       29.93F
*LEO CARRILLO    N/A     76  62  61 W7          N/A
*LOS ALAMITOS  MOSUNNY   79  62  55 S10       29.92F
*REDONDO BEACH   N/A     77  62  58 W2        29.93S
SANTA ANA      MOSUNNY   80  60  50 SW8       29.92F
STA MONICA APT SUNNY     76  58  53 SW12      29.94S

$$

CAZ547-548-048-202100-
LA COUNTY VALLEYS AND INLAND EMPIRE


CITY           SKY/WX    TMP DP  RH WIND       PRES   REMARKS
BURBANK        SUNNY     80  53  39 S8        29.92F
VAN NUYS       SUNNY     83  52  34 SE9       29.92F

CITY           SKY/WX    TMP DP  RH WIND       PRES   REMARKS
CORONA AIRPORT PTCLDY    84  58  41 W7          N/A
*CHATSWORTH      N/A     82  58  43 NE3       29.88F
CHINO          MOSUNNY   84  54  35 NW7       29.93F
*CLAREMONT       N/A     86  46  24 NE5         N/A
MARCH AFB      MOSUNNY   81  46  30 VRB1      29.95F
ONTARIO        MOSUNNY   84  52  33 S8        29.93F
*PASADENA        N/A     82  57  42 E3          N/A
RIVERSIDE      MOSUNNY   82  52  35 VRB6      29.93F
SAN BERNARDINO PTSUNNY   81  48  32 W6        29.94S
*SAN GABRIEL     N/A     81  52  36 CALM      29.87F
*SAN RAFAEL HI   N/A     86  62  44 S6          N/A
*SAUGUS          N/A     81  54  38 S14         N/A
*WHITEMAN AP   SUNNY     81  52  36 E8        29.96F
*WHITTIER HILL   N/A     85  61  43 SW7         N/A
*WOODLAND HILL   N/A     84  50  30 E6          N/A

$$

CAZ054-055-202100-
LA AND SAN BERNARDINO COUNTY MOUNTAINS


CITY           SKY/WX    TMP DP  RH WIND       PRES   REMARKS
*ACTON           N/A     81  54  38 S10         N/A
*BIG BEAR AIRP MOCLDY    66  32  28 S6        30.19F
*BIG PINES       N/A     68  37  32 CALM        N/A
MT WILSON NWS    N/A     72  52  49 SW5         N/A
SANDBERG       SUNNY     78  30  17 S13       30.08F

$$

CAZ028-029-059-060-099-202100-
ANTELOPE VALLEY AND SURROUNDING AREAS


CITY           SKY/WX    TMP DP  RH WIND       PRES   REMARKS
LANCASTER      SUNNY     85  41  21 NW6       29.95F
PALMDALE       SUNNY     84  33  16 N5        29.96F
*POPPY PARK      N/A     87  38  17 S12G24      N/A

CITY           SKY/WX    TMP DP  RH WIND       PRES   REMARKS
29 PALMS       PTSUNNY   90  45  21 E8        30.00F
BARSTOW/DAGGET MOSUNNY   86  37  17 VRB3      29.92F
BISHOP         SUNNY     87  30  13 SE8G21    29.97F
CHINA LAKE     MOSUNNY   88  38  17 SW8       29.94F
EDWARDS AFB    MOSUNNY   85  29  13 W7        29.93F
MOJAVE         FAIR      84  30  14 S9        29.97F
NEEDLES        SUNNY     96  49  20 W8        29.86F HX  93
VICTORVILLE    MOSUNNY   86  46  25 S15G22    29.96F

$$

CAZ039-040-202100-
VENTURA AND SANTA BARBARA COUNTY COAST


CITY           SKY/WX    TMP DP  RH WIND       PRES   REMARKS
CAMARILLO      SUNNY     79  58  48 SW10      29.93F
NWS OXNARD       N/A     76  60  55 SW7       29.93F
OXNARD AIRPORT SUNNY     73  59  61 W12       29.94F
*POINT MUGU    MOSUNNY   80  59  48 W10       29.94F
SBA APT/GOLETA SUNNY     74  57  55 W7        29.94F
*SANTA BARBARA   N/A     79  57  46 CALM      30.01F
*VENTURA         N/A     76  59  54 SW7       29.96F

$$

CAZ044-045-202100-
VENTURA COUNTY VALLEYS


CITY           SKY/WX    TMP DP  RH WIND       PRES   REMARKS
*SIMI VALLEY     N/A     83  54  35 N6        29.86F
*OJAI            N/A     83  62  47 W3        29.84F
*FILLMORE        N/A     83  64  50 W7        29.81F

$$

CAZ053-202100-
VENTURA COUNTY MOUNTAINS


CITY           SKY/WX    TMP DP  RH WIND       PRES   REMARKS
*LOCKWOOD VLY    N/A     73  34  23 MISG        N/A
*ROSE VALLEY     N/A     79  57  47 MISG        N/A

$$

CAZ034-035-036-202100-
CENTRAL COAST AND SANTA YNEZ VALLEY


CITY           SKY/WX    TMP DP  RH WIND       PRES   REMARKS
SAN LUIS OBISP SUNNY     76  57  51 W8        29.94F
SANTA MARIA    MOSUNNY   78  58  49 VRB7      29.94F

CITY           SKY/WX    TMP DP  RH WIND       PRES   REMARKS
*CAL POLY SLO    N/A    N/A N/A N/A N3          N/A
*CAMBRIA         N/A     70  59  67 NE9       29.85S
*LOMPOC        SUNNY     73  55  53 W14       29.96F
*PISMO BEACH     N/A     67  61  82 W9        29.96F
*SANTA YNEZ    FAIR      79  54  41 W8        29.93F

$$

CAZ037-038-051-202100-
SAN LUIS OBISPO COUNTY INTERIOR AND CUYAMA VALLEY


CITY           SKY/WX    TMP DP  RH WIND       PRES   REMARKS
*CUYAMA          N/A     83  42  23 W1        29.84S
PASO ROBLES    SUNNY     76  55  48 SW8       29.93F

$$

CAZ032-033-061-202100-
SOUTHERN DESERTS


CITY           SKY/WX    TMP DP  RH WIND       PRES   REMARKS
BLYTHE         MOSUNNY   98  54  22 S7        29.83F HX  96
IMPERIAL       MOSUNNY   96  43  16 MISG      29.81F HX  92
PALM SPRINGS   CLOUDY    92  49  22 NW8       29.86F
THERMAL        PTSUNNY   96  47  18 W6        29.79F HX  92

$$

ELSEWHERE ACROSS THE WESTERN UNITED STATES AND MEXICO


CITY           SKY/WX    TMP DP  RH WIND       PRES   REMARKS
DENVER, CO     PTSUNNY   84  49  29 N7        29.94F
GRAND CANYON,  MOSUNNY   66  52  60 SE12      30.24S
HONOLULU, HI   MOSUNNY   84  64  51 NE13      29.99S
KAHULUI, MAUI  PTSUNNY   82  66  57 NE15      30.01R
LAKE TAHOE, CA SUNNY     77  39  25 N10       30.09S
LAS VEGAS, NV  MOSUNNY   92  36  14 S17G31    29.88F
MAMMOTH LAKES, FAIR      77  25  14 E9        30.16F
MEXICO CITY, M PTSUNNY   75  52  43 NE8       30.29F
PHOENIX, AZ    MOSUNNY   93  58  30 VRB5      29.89F HX  92
PORTLAND, OR   MOSUNNY   71  48  43 VRB3      29.99F
RENO, NV       MOSUNNY   85  37  18 CALM      29.95F
SALT LAKE CITY PTSUNNY   77  49  37 S16       29.98F
SAN DIEGO, CA  PTSUNNY   74  60  61 SW8       29.95F
SAN FRANCISCO, MOSUNNY   71  58  63 SW17G24   29.94S
SAN JOSE, CA   MOSUNNY   74  56  53 S10       29.92F
SEATTLE, WA    CLOUDY    66  50  56 SW10      30.00R
TIJUANA, MEX   PTSUNNY   73  57  56 W12       29.96

$$

STATION/POSITION TIME  TEMP    WIND        PRES    VSBY  WAVE
                       AIR SEA DIR/SP/G                  HT/PER
                 (UTC) (F)     (DEG/KT/KT) (MB)    (MI)  (FT/S)
POINT ARGUELLO B NOT AVBL
WEST SANTA BARBA 2000   63 62  330/  8/  8 1014.0F         3/14
POINT CONCEPTION NOT AVBL
EAST SANTA BARBA 2000   64 65  300/ 10/ 10 1014.3F
SANTA MONICA BAY 2000   70 73  180/  2/  4 1013.7F         2/14



USA.gov is the U.S. government's official web portal to all federal, state and local government web resources and services.